THOR ABLESTAR DEB, 154

Orbit data source: Space-Track

THOR ABLESTAR DEB, 154 is space debris in LEO originally from a launch on Thu, 29 Jun 1961 UTC launched from the Air Force Eastern Test Range (AFETR). Debris objects in space refer to the collection of defunct objects orbiting the Earth. Examples of debris include non-operational satellites, rocket bodies, and fragments generated from explosions, collisions, or faulty payload assembly.

Loading next visibility...
Identifier
154, 1961-015AQ
Orbit
LEO
Country
Flag of USUS
Related business
Manufacturer
Unknown
Mission
Spacecraft
Bus & Motor
Unknown
Mass
Unknown
Launch date (UTC)
1961-06-29 (64 years ago)
Launch vehicle
Unknown
Launch site
Air Force Eastern Test Range (AFETR)
Object type
Payload
Rocket body
Debris
Shape & HBR
Unknown shape, 0.4 m
Radar Cross Section
Medium (>0.1 m² and <1 m²)

Expand to show TLE details & history
Last TLE update: 23 hours ago

TLE from 23 hours ago
0 THOR ABLESTAR DEB
1 00154U 61015AQ  25348.19701103  .00000310  00000-0  23099-3 0  9997
2 00154  66.6581 259.3766 0078565 145.8771 214.7402 14.06194907290626
Epoch: 2025-12-14T04:43Z
TLE epoch observation values (Epoch: 2025-12-14T04:43:41.752Z)
Latitude
0.00002°
Longitude
105.33925°
Altitude
921.462 km
Speed
7.368 km/s
True Right ascension
17h 17m 30s
True Declination
0° 00' 00"
Sunlit
Object was in daylight at epoch
Visualization orbit readout
Latitude
Unknown
Longitude
Unknown
Altitude
Unknown
Speed
Unknown
Apparent Right ascension
Unknown
Apparent Declination
Unknown
Sunlit
N/A
Visualization observer readout
Local Sidereal Time
02:42:13
Azimuth
Unknown
Elevation
Unknown
Doppler factor
Unknown
Orbital elements
Apogee altitude
927.771 km
Perigee altitude
813.868 km
Semi-major axis
7,248.957 km
Eccentricity
0.00786
Inclination
66.6581°
RAAN
259.3766°
Arg. of periapsis
145.8771°
True anomaly
214.23128°
Mean anomaly
214.7402°
Eccentric anomaly
214.48533°
Mean motion
3.51666 °/min
Orbital period
102.37 mins
BSTAR
0.00023099

Documentation

Showing up to 5 results
|